FDX5791 RCTP-RPLC

Flight info

Callsign FDX5791
Flight time 1h 49m
Altitude 32000
Route TINHO1A TINHO B591 TACLE Q11 POTIB DCT SANRO/N0493F330 W4 MALIB MALIB5R
Aircraft MD11/H-SDE1E2E3FGHIJ2J3J4J5M1RWXY/LB1D1

Departure

Time 2026-04-30 20:54
Airport Taiwan Taoyuan International Airport (RCTP)

Arrival

Time 2026-04-30 22:43
Airport Clark International Airport / Clark Air Base (RPLC)
Time Latitude Longitude Altitude Speed Heading
2026-04-30 20:08 25.08728 121.23946 108 ft 0 kts 139°
2026-04-30 20:40 25.08738 121.23937 107 ft 4 kts 139°
2026-04-30 20:40 25.08755 121.23920 108 ft 2 kts 139°
2026-04-30 20:40 25.08774 121.23902 107 ft 4 kts 139°
2026-04-30 20:41 25.08816 121.23880 107 ft 4 kts 185°
2026-04-30 20:41 25.08838 121.23886 107 ft 4 kts 224°
2026-04-30 20:41 25.08853 121.23908 106 ft 4 kts 233°
2026-04-30 20:41 25.08858 121.23914 107 ft 0 kts 229°
2026-04-30 20:44 25.08846 121.23899 106 ft 7 kts 229°
2026-04-30 20:45 25.08683 121.23691 108 ft 28 kts 229°
2026-04-30 20:45 25.08551 121.23524 109 ft 29 kts 229°
2026-04-30 20:45 25.08418 121.23356 107 ft 29 kts 229°
2026-04-30 20:46 25.08018 121.22846 106 ft 29 kts 229°
2026-04-30 20:46 25.07884 121.22675 108 ft 29 kts 229°
2026-04-30 20:47 25.07617 121.22337 108 ft 29 kts 229°
2026-04-30 20:47 25.07483 121.22167 108 ft 29 kts 229°
2026-04-30 20:48 25.07273 121.21878 108 ft 9 kts 259°
2026-04-30 20:48 25.07289 121.21846 107 ft 11 kts 307°
2026-04-30 20:48 25.07312 121.21820 108 ft 0 kts 318°
2026-04-30 20:49 25.07315 121.21817 108 ft 1 kts 318°
2026-04-30 20:50 25.07335 121.21798 108 ft 3 kts 318°
2026-04-30 20:50 25.07350 121.21783 108 ft 3 kts 318°
2026-04-30 20:50 25.07367 121.21766 107 ft 3 kts 318°
2026-04-30 20:50 25.07403 121.21758 108 ft 8 kts
2026-04-30 20:51 25.07445 121.21795 108 ft 0 kts 49°
2026-04-30 20:51 25.07450 121.21801 108 ft 0 kts 49°
2026-04-30 20:53 25.07525 121.21898 108 ft 64 kts 49°
2026-04-30 20:53 25.08087 121.22614 157 ft 174 kts 50°
2026-04-30 20:54 25.09563 121.24484 3316 ft 169 kts 51°
2026-04-30 20:54 25.10445 121.25618 3726 ft 224 kts 51°
2026-04-30 20:55 25.14215 121.30480 7234 ft 293 kts 48°
2026-04-30 20:55 25.15547 121.32209 8832 ft 298 kts 47°
2026-04-30 20:55 25.16904 121.33973 10345 ft 307 kts 47°
2026-04-30 20:56 25.20079 121.38078 11579 ft 379 kts 47°
2026-04-30 20:56 25.21811 121.40335 12889 ft 390 kts 47°
2026-04-30 20:56 25.25401 121.45020 15228 ft 409 kts 47°
2026-04-30 20:57 25.27411 121.47253 16227 ft 410 kts 32°
2026-04-30 20:57 25.29747 121.49094 17104 ft 419 kts 38°
2026-04-30 20:57 25.31698 121.51532 18239 ft 430 kts 54°
2026-04-30 20:58 25.33627 121.57887 20028 ft 450 kts 86°
2026-04-30 20:58 25.33437 121.61366 20884 ft 457 kts 101°
2026-04-30 20:58 25.32463 121.64721 21756 ft 462 kts 116°
2026-04-30 20:58 25.30768 121.67739 22630 ft 465 kts 131°
2026-04-30 20:59 25.25674 121.72065 24333 ft 466 kts 160°
2026-04-30 20:59 25.22594 121.73135 25185 ft 464 kts 172°
2026-04-30 21:00 25.16175 121.74071 27009 ft 468 kts 179°
2026-04-30 21:00 25.09613 121.74671 28749 ft 478 kts 180°
2026-04-30 21:01 25.02904 121.75238 30358 ft 489 kts 180°
2026-04-30 21:01 24.99505 121.75524 31158 ft 490 kts 180°
2026-04-30 21:01 24.92722 121.76239 32725 ft 494 kts 176°
2026-04-30 21:02 24.89360 121.77034 33092 ft 496 kts 169°
2026-04-30 21:02 24.86073 121.78208 33475 ft 499 kts 164°
2026-04-30 21:02 24.82850 121.79637 33857 ft 501 kts 161°
2026-04-30 21:02 24.79656 121.81197 33999 ft 503 kts 160°
2026-04-30 21:03 24.76465 121.82817 34024 ft 506 kts 160°
2026-04-30 21:03 24.70075 121.86060 34027 ft 506 kts 160°
2026-04-30 21:04 24.63657 121.89251 34033 ft 506 kts 161°
2026-04-30 21:04 24.55106 121.93445 34026 ft 506 kts 161°
2026-04-30 21:05 24.48675 121.96586 34013 ft 506 kts 161°
2026-04-30 21:05 24.42243 121.99700 34010 ft 505 kts 163°
2026-04-30 21:06 24.35576 122.01693 34012 ft 491 kts 180°
2026-04-30 21:06 24.28919 122.01205 34013 ft 475 kts 199°
2026-04-30 21:07 24.22645 121.99093 34013 ft 470 kts 204°
2026-04-30 21:07 24.16436 121.96810 34003 ft 471 kts 203°
2026-04-30 21:08 24.10171 121.94662 34008 ft 472 kts 202°
2026-04-30 21:08 24.03892 121.92599 33997 ft 471 kts 202°
2026-04-30 21:09 23.97618 121.90565 34004 ft 470 kts 202°
2026-04-30 21:09 23.91344 121.88538 33999 ft 470 kts 202°
2026-04-30 21:10 23.85067 121.86508 34002 ft 470 kts 202°
2026-04-30 21:10 23.78809 121.84481 33998 ft 468 kts 202°
2026-04-30 21:11 23.72563 121.82453 33999 ft 468 kts 202°
2026-04-30 21:11 23.66320 121.80427 33999 ft 468 kts 202°
2026-04-30 21:12 23.60074 121.78408 33994 ft 469 kts 201°
2026-04-30 21:12 23.53811 121.76390 33990 ft 468 kts 201°
2026-04-30 21:13 23.47566 121.74369 33993 ft 468 kts 202°
2026-04-30 21:13 23.41326 121.72349 33996 ft 468 kts 201°
2026-04-30 21:14 23.35086 121.70336 33991 ft 468 kts 201°
2026-04-30 21:14 23.28848 121.68328 33985 ft 467 kts 202°
2026-04-30 21:15 23.22649 121.66335 33994 ft 467 kts 202°
2026-04-30 21:15 23.16379 121.64319 33982 ft 467 kts 202°
2026-04-30 21:16 23.10185 121.62329 33993 ft 467 kts 202°
2026-04-30 21:16 23.03959 121.60330 33985 ft 466 kts 202°
2026-04-30 21:17 22.97740 121.58333 33977 ft 466 kts 202°
2026-04-30 21:17 22.91523 121.56334 33976 ft 466 kts 202°
2026-04-30 21:18 22.85317 121.54339 33967 ft 466 kts 202°
2026-04-30 21:18 22.79102 121.52344 33959 ft 465 kts 202°
2026-04-30 21:19 22.72924 121.50361 33967 ft 462 kts 202°
2026-04-30 21:19 22.66756 121.48378 33965 ft 462 kts 203°
2026-04-30 21:20 22.60757 121.45999 33966 ft 458 kts 207°
2026-04-30 21:20 22.54878 121.43358 33949 ft 457 kts 208°
2026-04-30 21:21 22.49014 121.40718 33963 ft 457 kts 208°
2026-04-30 21:22 22.40183 121.36802 33966 ft 457 kts 208°
2026-04-30 21:23 22.28395 121.31605 33939 ft 458 kts 207°
2026-04-30 21:23 22.19531 121.27701 33958 ft 459 kts 207°
2026-04-30 21:24 22.13616 121.25100 33952 ft 459 kts 207°
2026-04-30 21:24 22.07703 121.22501 33949 ft 460 kts 207°
2026-04-30 21:25 21.98812 121.18601 33943 ft 460 kts 207°
2026-04-30 21:26 21.89926 121.14713 33949 ft 460 kts 207°
2026-04-30 21:27 21.81035 121.10821 33948 ft 460 kts 207°
2026-04-30 21:27 21.75105 121.08227 33942 ft 460 kts 207°
2026-04-30 21:28 21.66215 121.04342 33939 ft 460 kts 207°
2026-04-30 21:29 21.57317 121.00460 33933 ft 460 kts 207°
2026-04-30 21:30 21.42523 120.94016 33933 ft 460 kts 207°
2026-04-30 21:31 21.27676 120.87563 33928 ft 461 kts 207°
2026-04-30 21:32 21.18744 120.83692 33925 ft 463 kts 206°
2026-04-30 21:32 21.12770 120.81109 33925 ft 463 kts 206°
2026-04-30 21:33 21.03809 120.77236 33922 ft 463 kts 206°
2026-04-30 21:34 20.97507 120.75585 33920 ft 472 kts 191°
2026-04-30 21:34 20.87644 120.74776 33922 ft 474 kts 188°
2026-04-30 21:35 20.81069 120.74237 33916 ft 474 kts 189°
2026-04-30 21:35 20.74504 120.73619 33916 ft 473 kts 189°
2026-04-30 21:36 20.68001 120.72983 33914 ft 473 kts 189°
2026-04-30 21:37 20.54908 120.71710 33912 ft 473 kts 189°
2026-04-30 21:37 20.48351 120.71076 33912 ft 473 kts 189°
2026-04-30 21:38 20.41802 120.70442 33907 ft 473 kts 189°
2026-04-30 21:38 20.35259 120.69810 33908 ft 472 kts 189°
2026-04-30 21:39 20.28708 120.69178 33909 ft 472 kts 189°
2026-04-30 21:39 20.22159 120.68546 33906 ft 472 kts 189°
2026-04-30 21:40 20.15610 120.67916 33906 ft 472 kts 189°
2026-04-30 21:40 20.09063 120.67287 33905 ft 473 kts 189°
2026-04-30 21:41 20.02511 120.66657 33906 ft 473 kts 189°
2026-04-30 21:41 19.95964 120.66028 33906 ft 473 kts 189°
2026-04-30 21:42 19.89409 120.65398 33903 ft 473 kts 189°
2026-04-30 21:42 19.82863 120.64770 33901 ft 472 kts 189°
2026-04-30 21:43 19.77418 120.64248 33900 ft 472 kts 189°
2026-04-30 21:43 19.69774 120.63515 33900 ft 472 kts 189°
2026-04-30 21:44 19.63238 120.62889 33898 ft 472 kts 189°
2026-04-30 21:44 19.56698 120.62264 33888 ft 472 kts 189°
2026-04-30 21:45 19.50147 120.61637 33898 ft 473 kts 189°
2026-04-30 21:45 19.43594 120.61012 33894 ft 473 kts 189°
2026-04-30 21:46 19.37045 120.60387 33888 ft 473 kts 189°
2026-04-30 21:46 19.30537 120.59767 33888 ft 473 kts 189°
2026-04-30 21:47 19.23947 120.59141 33889 ft 473 kts 189°
2026-04-30 21:47 19.17437 120.58521 33881 ft 473 kts 189°
2026-04-30 21:48 19.10889 120.57899 33888 ft 473 kts 189°
2026-04-30 21:48 19.04336 120.57276 33886 ft 472 kts 189°
2026-04-30 21:49 18.97790 120.56654 33882 ft 472 kts 188°
2026-04-30 21:49 18.91245 120.56033 33884 ft 472 kts 188°
2026-04-30 21:50 18.84705 120.55413 33877 ft 472 kts 188°
2026-04-30 21:50 18.78162 120.54793 33875 ft 472 kts 188°
2026-04-30 21:51 18.72688 120.54275 33861 ft 472 kts 188°
2026-04-30 21:51 18.66196 120.53662 33854 ft 471 kts 189°
2026-04-30 21:52 18.59670 120.53045 33853 ft 470 kts 189°
2026-04-30 21:52 18.53154 120.52429 33853 ft 470 kts 189°
2026-04-30 21:53 18.46631 120.51814 33847 ft 470 kts 189°
2026-04-30 21:53 18.40113 120.51200 33836 ft 469 kts 189°
2026-04-30 21:54 18.33622 120.50589 33836 ft 469 kts 189°
2026-04-30 21:54 18.27126 120.49977 33852 ft 469 kts 189°
2026-04-30 21:55 18.20633 120.49366 33850 ft 469 kts 189°
2026-04-30 21:55 18.14134 120.48755 33849 ft 469 kts 189°
2026-04-30 21:56 18.07639 120.48145 33848 ft 468 kts 189°
2026-04-30 21:56 18.01163 120.47537 33845 ft 468 kts 189°
2026-04-30 21:57 17.94681 120.46929 33841 ft 468 kts 189°
2026-04-30 21:57 17.88201 120.46321 33839 ft 468 kts 189°
2026-04-30 21:58 17.81720 120.45713 33840 ft 468 kts 189°
2026-04-30 21:58 17.75242 120.45107 33843 ft 467 kts 189°
2026-04-30 21:59 17.68760 120.44501 33848 ft 467 kts 188°
2026-04-30 22:00 17.59036 120.43594 33849 ft 467 kts 189°
2026-04-30 22:00 17.49323 120.42688 33851 ft 467 kts 188°
2026-04-30 22:01 17.42847 120.42084 33860 ft 467 kts 188°
2026-04-30 22:01 17.36377 120.41481 33862 ft 467 kts 188°
2026-04-30 22:02 17.29942 120.40882 33864 ft 467 kts 188°
2026-04-30 22:02 17.23465 120.40278 33871 ft 467 kts 188°
2026-04-30 22:03 17.16948 120.39673 33858 ft 467 kts 188°
2026-04-30 22:03 17.10517 120.39075 33866 ft 467 kts 188°
2026-04-30 22:04 17.04045 120.38474 33876 ft 467 kts 188°
2026-04-30 22:05 16.94339 120.37573 33903 ft 467 kts 188°
2026-04-30 22:05 16.87856 120.36972 33945 ft 468 kts 188°
2026-04-30 22:06 16.81379 120.36373 33939 ft 468 kts 188°
2026-04-30 22:06 16.71635 120.35815 33948 ft 471 kts 180°
2026-04-30 22:07 16.65097 120.36596 33945 ft 474 kts 175°
2026-04-30 22:07 16.58571 120.37587 33946 ft 474 kts 175°
2026-04-30 22:08 16.52032 120.38517 33945 ft 473 kts 175°
2026-04-30 22:08 16.48794 120.38957 33722 ft 465 kts 175°
2026-04-30 22:08 16.45588 120.39387 33477 ft 464 kts 176°
2026-04-30 22:09 16.42381 120.39812 33022 ft 465 kts 176°
2026-04-30 22:09 16.39175 120.40235 32418 ft 466 kts 175°
2026-04-30 22:09 16.35948 120.40662 31802 ft 468 kts 175°
2026-04-30 22:09 16.32705 120.41091 31194 ft 471 kts 175°
2026-04-30 22:10 16.29444 120.41524 30579 ft 474 kts 175°
2026-04-30 22:10 16.26164 120.41959 29957 ft 477 kts 175°
2026-04-30 22:10 16.22865 120.42397 29256 ft 479 kts 175°
2026-04-30 22:10 16.19549 120.42838 28536 ft 481 kts 175°
2026-04-30 22:11 16.12876 120.43724 27127 ft 486 kts 174°
2026-04-30 22:11 16.09524 120.44169 26438 ft 484 kts 174°
2026-04-30 22:11 16.06194 120.44612 25753 ft 480 kts 174°
2026-04-30 22:12 16.02903 120.45049 25067 ft 475 kts 174°
2026-04-30 22:12 15.99635 120.45483 24401 ft 470 kts 174°
2026-04-30 22:12 15.96405 120.45911 23740 ft 465 kts 173°
2026-04-30 22:12 15.93215 120.46333 22996 ft 460 kts 173°
2026-04-30 22:13 15.90057 120.46751 22288 ft 455 kts 173°
2026-04-30 22:13 15.86933 120.47164 21629 ft 449 kts 173°
2026-04-30 22:13 15.83851 120.47571 20976 ft 444 kts 173°
2026-04-30 22:13 15.80801 120.47974 20337 ft 439 kts 173°
2026-04-30 22:14 15.77783 120.48373 19711 ft 435 kts 173°
2026-04-30 22:14 15.74798 120.48767 19099 ft 430 kts 173°
2026-04-30 22:14 15.71850 120.49157 18492 ft 426 kts 173°
2026-04-30 22:14 15.68929 120.49542 17832 ft 420 kts 173°
2026-04-30 22:15 15.66043 120.49919 17186 ft 415 kts 173°
2026-04-30 22:15 15.63193 120.50289 16573 ft 410 kts 173°
2026-04-30 22:15 15.60374 120.50655 15977 ft 406 kts 172°
2026-04-30 22:15 15.57594 120.51015 15392 ft 401 kts 172°
2026-04-30 22:16 15.54835 120.51373 14817 ft 398 kts 172°
2026-04-30 22:16 15.52101 120.51728 14250 ft 394 kts 172°
2026-04-30 22:17 15.44047 120.52778 12511 ft 383 kts 172°
2026-04-30 22:17 15.41411 120.53125 11984 ft 380 kts 172°
2026-04-30 22:17 15.36215 120.53810 11181 ft 373 kts 172°
2026-04-30 22:18 15.33713 120.54138 11052 ft 349 kts 172°
2026-04-30 22:18 15.29202 120.54728 10818 ft 306 kts 172°
2026-04-30 22:19 15.25108 120.55266 10576 ft 293 kts 172°
2026-04-30 22:19 15.23089 120.55533 10273 ft 292 kts 172°
2026-04-30 22:19 15.19140 120.56131 9237 ft 286 kts 161°
2026-04-30 22:20 15.17338 120.56999 8752 ft 282 kts 148°
2026-04-30 22:20 15.14101 120.59171 7848 ft 276 kts 144°
2026-04-30 22:20 15.12496 120.60291 7399 ft 274 kts 144°
2026-04-30 22:21 15.10941 120.61375 6966 ft 272 kts 144°
2026-04-30 22:21 15.09376 120.62440 6553 ft 270 kts 147°
2026-04-30 22:21 15.07641 120.63176 6156 ft 272 kts 166°
2026-04-30 22:21 15.05750 120.63143 5795 ft 275 kts 190°
2026-04-30 22:22 15.03917 120.62552 5452 ft 278 kts 197°
2026-04-30 22:22 15.02137 120.61829 5212 ft 269 kts 200°
2026-04-30 22:22 15.00539 120.60860 4969 ft 267 kts 218°
2026-04-30 22:22 14.99497 120.59412 4501 ft 273 kts 247°
2026-04-30 22:23 14.99312 120.57499 4130 ft 266 kts 282°
2026-04-30 22:23 15.00042 120.55852 3786 ft 243 kts 308°
2026-04-30 22:23 15.01077 120.54548 3431 ft 229 kts 314°
2026-04-30 22:23 15.02125 120.53340 3090 ft 222 kts 315°
2026-04-30 22:24 15.03196 120.52228 2978 ft 215 kts 324°
2026-04-30 22:24 15.04467 120.51512 2952 ft 205 kts 347°
2026-04-30 22:24 15.05847 120.51404 2956 ft 198 kts 13°
2026-04-30 22:24 15.07174 120.51759 2940 ft 198 kts 20°
2026-04-30 22:25 15.08472 120.52199 2642 ft 195 kts 24°
2026-04-30 22:25 15.09698 120.52688 2325 ft 179 kts 24°
2026-04-30 22:25 15.10837 120.53149 2063 ft 173 kts 24°
2026-04-30 22:25 15.11952 120.53595 1802 ft 171 kts 24°
2026-04-30 22:26 15.14163 120.54477 1293 ft 170 kts 22°
2026-04-30 22:26 15.15272 120.54921 988 ft 171 kts 21°
2026-04-30 22:26 15.16382 120.55366 694 ft 171 kts 20°
2026-04-30 22:27 15.17493 120.55808 486 ft 171 kts 19°
2026-04-30 22:27 15.18527 120.56206 478 ft 143 kts 19°
2026-04-30 22:27 15.20746 120.57014 2546 ft 173 kts 21°
2026-04-30 22:28 15.23108 120.57780 3233 ft 191 kts 19°
2026-04-30 22:28 15.24396 120.58156 3171 ft 194 kts 19°
2026-04-30 22:29 15.27755 120.60084 3169 ft 188 kts 71°
2026-04-30 22:29 15.27761 120.61420 3169 ft 193 kts 107°
2026-04-30 22:30 15.22686 120.64495 3165 ft 223 kts 155°
2026-04-30 22:31 15.18366 120.66268 3164 ft 223 kts 155°
2026-04-30 22:32 15.13848 120.65453 3170 ft 234 kts 203°
2026-04-30 22:32 15.10985 120.64227 3147 ft 202 kts 194°
2026-04-30 22:33 15.07079 120.62992 3149 ft 196 kts 193°
2026-04-30 22:33 15.04488 120.62097 3164 ft 197 kts 198°
2026-04-30 22:34 15.00690 120.60422 3163 ft 198 kts 199°
2026-04-30 22:35 14.98165 120.59300 3163 ft 197 kts 199°
2026-04-30 22:36 14.93566 120.57140 2935 ft 200 kts 217°
2026-04-30 22:36 14.92747 120.55469 2955 ft 205 kts 266°
2026-04-30 22:37 14.94246 120.51951 2966 ft 203 kts 305°
2026-04-30 22:37 14.95040 120.50745 2955 ft 203 kts 314°
2026-04-30 22:37 14.97493 120.49625 2977 ft 196 kts 348°
2026-04-30 22:38 15.00126 120.49011 2929 ft 190 kts 10°
2026-04-30 22:38 15.02568 120.49888 2963 ft 184 kts 25°
2026-04-30 22:39 15.03714 120.50332 2947 ft 172 kts 25°
2026-04-30 22:39 15.07053 120.51652 2965 ft 172 kts 25°
2026-04-30 22:40 15.10367 120.52968 2179 ft 169 kts 24°
2026-04-30 22:41 15.13671 120.54281 1412 ft 170 kts 23°
2026-04-30 22:41 15.15877 120.55168 825 ft 170 kts 20°
2026-04-30 22:42 15.19405 120.56562 438 ft 57 kts 20°
2026-04-30 22:43 15.19623 120.56599 438 ft 13 kts 304°
2026-04-30 22:43 15.19683 120.56447 435 ft 10 kts 291°
2026-04-30 22:44 15.19745 120.56303 433 ft 12 kts 291°
2026-04-30 22:45 15.19803 120.56146 440 ft 0 kts 290°